This demonstration page uses our WeatherBlox Daily Observations layout. Learn more.

Left ArrowRight Arrow

Hourly Observations for November 1, 2016

Temp ( °F °C ) Dew Point ( °F °C ) Humidity (%) Winds ( mph kmh ) Pressure ( in mb ) Visibility ( mi km ) Precip ( " mm )
12:59 am 00:59 Mostly Cloudy 47 8.3 44 6.7 90 90 VRB 3 6 30.28 1025 10 16 0.00 0.00
1:59 am 01:59 Mostly Cloudy 46 7.8 44 6.7 93 93 Calm 30.30 1026 9 14 0.00 0.00
2:59 am 02:59 Mostly Cloudy 47 8.3 44 6.7 90 90 SE 3 6 30.30 1026 10 16 0.00 0.00
3:59 am 03:59 Mostly Cloudy 47 8.3 44 6.7 90 90 Calm 30.31 1026 10 16 0.00 0.00
4:59 am 04:59 Mostly Cloudy 47 8.3 45 7.2 93 93 Calm 30.32 1027 10 16 0.00 0.00
5:59 am 05:59 Mostly Cloudy 49 9.4 46 7.8 90 90 SE 3 6 30.32 1027 10 16 0.00 0.00
6:59 am 06:59 Mostly Cloudy 52 11.1 47 8.3 83 83 Calm 30.32 1027 10 16 0.00 0.00
7:59 am 07:59 Mostly Cloudy 53 11.7 50 10 89 89 Calm 30.33 1027 10 16 0.00 0.00
8:59 am 08:59 Cloudy 56 13.3 49 9.4 77 77 Calm 30.35 1028 10 16 0.00 0.00
9:59 am 09:59 Cloudy 58 14.4 49 9.4 72 72 ESE 3 6 30.35 1028 10 16 0.00 0.00
10:59 am 10:59 Cloudy 60 15.6 48 8.9 65 65 VRB 3 6 30.36 1028 10 16 0.00 0.00
11:59 am 11:59 Cloudy 60 15.6 48 8.9 65 65 E 6 9 30.35 1028 10 16 0.00 0.00
12:59 pm 12:59 Cloudy 61 16.1 48 8.9 63 63 ESE 3 6 30.35 1028 10 16 0.00 0.00
1:59 pm 13:59 Cloudy 63 17.2 48 8.9 58 58 Calm 30.33 1027 10 16 0.00 0.00
2:59 pm 14:59 Cloudy 62 16.7 50 10 65 65 NE 3 6 30.32 1027 10 16 0.00 0.00
3:59 pm 15:59 Cloudy 62 16.7 50 10 65 65 E 6 9 30.31 1027 10 16 0.00 0.00
4:59 pm 16:59 Cloudy 62 16.7 51 10.6 67 67 ENE 5 7 30.31 1026 10 16 0.00 0.00
5:59 pm 17:59 Cloudy 61 16.1 51 10.6 70 70 E 5 7 30.32 1027 10 16 0.00 0.00
6:59 pm 18:59 Mostly Cloudy 57 13.9 51 10.6 81 81 Calm 30.32 1027 10 16 0.00 0.00
7:59 pm 19:59 Mostly Cloudy 50 10 44 6.7 80 80 Calm 30.25 1024 10 16 0.00 0.00
8:59 pm 20:59 Mostly Cloudy 55 12.8 51 10.6 87 87 Calm 30.33 1027 10 16 0.00 0.00
9:59 pm 21:59 Mostly Cloudy 54 12.2 51 10.6 90 90 Calm 30.33 1027 10 16 0.00 0.00
10:59 pm 22:59 Mostly Cloudy 54 12.2 51 10.6 90 90 Calm 30.33 1027 10 16 0.00 0.00
11:59 pm 23:59 Mostly Cloudy 53 11.7 50 10 89 89 Calm 30.33 1027 10 16 0.00 0.00

Powered by AerisWeather